| time (UTC) | temp F | wind direction | speed MPH | gust MPH | rain 1hr in | rain 24hr in | rain mn in | humidity % | barometer mb |
| 20260905062222 | 79 | 103 | 0.0 | 5.0 | 0.00 | 0.04 | 0.00 | 82 | 1012.5 |
| 20260905061153 | 79 | 97 | 0.0 | 0.0 | 0.00 | 0.04 | 0.00 | 82 | 1012.4 |
| 20260905060158 | 79 | 93 | 2.0 | 5.0 | 0.00 | 0.04 | 0.00 | 82 | 1012.4 |
| 20260905055141 | 79 | 86 | 2.0 | 5.0 | 0.00 | 0.04 | 0.00 | 81 | 1012.3 |
| 20260905054129 | 79 | 109 | 2.0 | 6.0 | 0.00 | 0.04 | 0.00 | 81 | 1012.5 |
| 20260905053104 | 79 | 117 | 2.0 | 6.0 | 0.00 | 0.04 | 0.00 | 81 | 1012.5 |
| 20260905052110 | 79 | 114 | 1.0 | 6.0 | 0.00 | 0.04 | 0.00 | 81 | 1012.5 |
| 20260905051047 | 79 | 95 | 0.0 | 4.0 | 0.00 | 0.04 | 0.00 | 81 | 1012.6 |
| 20260905050034 | 79 | 80 | 0.0 | 3.0 | 0.00 | 0.04 | 0.00 | 81 | 1012.6 |
| 20260905045013 | 79 | 80 | 0.0 | 3.0 | 0.00 | 0.04 | 0.05 | 81 | 1012.7 |
| 20260905043943 | 79 | 80 | 0.0 | 3.0 | 0.00 | 0.04 | 0.05 | 80 | 1012.7 |
| 20260905042922 | 80 | 80 | 0.0 | 5.0 | 0.00 | 0.04 | 0.05 | 80 | 1012.6 |
| 20260905040747 | 80 | 83 | 0.0 | 4.0 | 0.00 | 0.04 | 0.05 | 81 | 1012.4 |
| 20260905035720 | 80 | 72 | 0.0 | 3.0 | 0.00 | 0.04 | 0.05 | 81 | 1012.4 |
| 20260905034651 | 80 | 72 | 0.0 | 4.0 | 0.00 | 0.04 | 0.05 | 80 | 1012.4 |
| 20260905033641 | 81 | 55 | 1.0 | 4.0 | 0.00 | 0.04 | 0.05 | 80 | 1012.4 |
| 20260905031535 | 81 | 67 | 0.0 | 4.0 | 0.00 | 0.04 | 0.05 | 79 | 1012.4 |
| 20260905030520 | 81 | 67 | 0.0 | 4.0 | 0.00 | 0.04 | 0.05 | 79 | 1012.4 |
| 20260905025505 | 82 | 60 | 1.0 | 4.0 | 0.00 | 0.04 | 0.05 | 79 | 1012.1 |
| 20260905023409 | 82 | 73 | 1.0 | 5.0 | 0.00 | 0.04 | 0.05 | 78 | 1012.0 |
| 20260905022401 | 82 | 78 | 2.0 | 6.0 | 0.00 | 0.04 | 0.05 | 78 | 1011.8 |
| 20260905021347 | 83 | 74 | 2.0 | 6.0 | 0.00 | 0.04 | 0.05 | 77 | 1011.8 |
| 20260905015251 | 83 | 88 | 2.0 | 7.0 | 0.00 | 0.04 | 0.05 | 75 | 1011.6 |
| 20260905014248 | 83 | 86 | 2.0 | 7.0 | 0.00 | 0.04 | 0.05 | 75 | 1011.4 |
| 20260905013309 | 84 | 119 | 3.0 | 7.0 | 0.00 | 0.04 | 0.05 | 74 | 1011.4 |
| 20260905012236 | 84 | 88 | 2.0 | 6.0 | 0.00 | 0.04 | 0.05 | 73 | 1011.3 |
| 20260905011245 | 84 | 82 | 3.0 | 8.0 | 0.00 | 0.04 | 0.05 | 72 | 1011.3 |
| 20260905010228 | 85 | 88 | 4.0 | 12.0 | 0.00 | 0.04 | 0.05 | 71 | 1011.2 |
| 20260905005246 | 85 | 93 | 5.0 | 12.0 | 0.00 | 0.04 | 0.05 | 69 | 1011.2 |
| 20260905004231 | 86 | 99 | 6.0 | 12.0 | 0.00 | 0.04 | 0.05 | 67 | 1011.0 |
| 20260905003231 | 87 | 111 | 4.0 | 10.0 | 0.00 | 0.04 | 0.05 | 65 | 1011.0 |
| 20260905002220 | 89 | 111 | 5.0 | 13.0 | 0.00 | 0.04 | 0.05 | 63 | 1010.7 |
| 20260905001211 | 90 | 92 | 5.0 | 13.0 | 0.00 | 0.04 | 0.05 | 60 | 1010.6 |
| 20260905000226 | 92 | 86 | 3.0 | 8.0 | 0.00 | 0.04 | 0.05 | 52 | 1010.4 |
| 20260904235158 | 92 | 173 | 3.0 | 8.0 | 0.00 | 0.04 | 0.05 | 51 | 1010.4 |
| 20260904234124 | 92 | 124 | 4.0 | 8.0 | 0.00 | 0.04 | 0.05 | 49 | 1010.3 |
| 20260904232030 | 93 | 105 | 3.0 | 10.0 | 0.00 | 0.04 | 0.05 | 47 | 1010.4 |
| 20260904231026 | 93 | 84 | 4.0 | 9.0 | 0.00 | 0.04 | 0.05 | 48 | 1010.4 |
| 20260904230037 | 93 | 116 | 4.0 | 11.0 | 0.00 | 0.04 | 0.05 | 47 | 1010.5 |
| 20260904225007 | 93 | 52 | 5.0 | 11.0 | 0.00 | 0.04 | 0.05 | 45 | 1010.5 |
| 20260904223942 | 93 | 123 | 5.0 | 10.0 | 0.00 | 0.04 | 0.05 | 46 | 1010.4 |
| 20260904222945 | 93 | 79 | 5.0 | 10.0 | 0.00 | 0.04 | 0.05 | 45 | 1010.6 |
| 20260904220836 | 93 | 126 | 4.0 | 9.0 | 0.00 | 0.04 | 0.05 | 49 | 1010.7 |
| 20260904215825 | 93 | 105 | 5.0 | 11.0 | 0.00 | 0.04 | 0.05 | 49 | 1010.7 |
| 20260904213719 | 93 | 55 | 5.0 | 11.0 | 0.00 | 0.04 | 0.05 | 52 | 1011.0 |
| 20260904212724 | 93 | 48 | 5.0 | 11.0 | 0.00 | 0.04 | 0.05 | 53 | 1011.1 |
| 20260904211748 | 93 | 106 | 5.0 | 12.0 | 0.00 | 0.04 | 0.05 | 54 | 1011.1 |
| 20260904210747 | 92 | 140 | 5.0 | 12.0 | 0.00 | 0.04 | 0.05 | 55 | 1011.3 |
| 20260904204637 | 93 | 144 | 3.0 | 9.0 | 0.00 | 0.04 | 0.05 | 58 | 1011.5 |
| 20260904200316 | 91 | 77 | 5.0 | 10.0 | 0.00 | 0.04 | 0.05 | 58 | 1011.7 |
| 20260904195328 | 91 | 94 | 5.0 | 10.0 | 0.00 | 0.04 | 0.05 | 59 | 1011.9 |
| 20260904193125 | 91 | 126 | 5.0 | 13.0 | 0.00 | 0.04 | 0.05 | 63 | 1012.0 |
| 20260904192138 | 91 | 84 | 6.0 | 13.0 | 0.00 | 0.04 | 0.05 | 63 | 1012.1 |
| 20260904191138 | 91 | 128 | 6.0 | 11.0 | 0.00 | 0.04 | 0.05 | 63 | 1012.2 |
| 20260904190146 | 91 | 135 | 5.0 | 10.0 | 0.00 | 0.04 | 0.05 | 62 | 1012.2 |
| 20260904185155 | 91 | 176 | 4.0 | 10.0 | 0.00 | 0.04 | 0.05 | 63 | 1012.3 |
| 20260904183113 | 90 | 128 | 4.0 | 9.0 | 0.00 | 0.04 | 0.05 | 63 | 1012.5 |
| 20260904182058 | 89 | 109 | 3.0 | 8.0 | 0.00 | 0.04 | 0.05 | 65 | 1012.5 |
| 20260904181114 | 89 | 88 | 4.0 | 8.0 | 0.00 | 0.04 | 0.05 | 69 | 1012.6 |
| 20260904180041 | 89 | 70 | 3.0 | 11.0 | 0.00 | 0.04 | 0.05 | 70 | 1012.7 |
| 20260904173849 | 87 | 157 | 4.0 | 10.0 | 0.00 | 0.04 | 0.05 | 69 | 1013.1 |
| 20260904172840 | 87 | 138 | 4.0 | 8.0 | 0.00 | 0.04 | 0.05 | 70 | 1013.3 |
| 20260904171806 | 88 | 163 | 5.0 | 12.0 | 0.00 | 0.04 | 0.05 | 71 | 1013.3 |
| 20260904165716 | 86 | 153 | 6.0 | 10.0 | 0.00 | 0.04 | 0.05 | 72 | 1013.5 |
| 20260904164645 | 86 | 123 | 4.0 | 9.0 | 0.00 | 0.04 | 0.05 | 74 | 1013.6 |
| 20260904163640 | 85 | 115 | 6.0 | 10.0 | 0.00 | 0.04 | 0.05 | 76 | 1013.6 |
| 20260904162653 | 85 | 167 | 4.0 | 11.0 | 0.00 | 0.04 | 0.05 | 79 | 1013.5 |
| 20260904161628 | 84 | 147 | 5.0 | 12.0 | 0.00 | 0.04 | 0.05 | 80 | 1013.5 |
| 20260904160601 | 84 | 130 | 6.0 | 12.0 | 0.00 | 0.04 | 0.05 | 79 | 1013.6 |
| 20260904155557 | 83 | 183 | 6.0 | 13.0 | 0.00 | 0.04 | 0.05 | 84 | 1013.4 |
| 20260904154604 | 82 | 167 | 8.0 | 13.0 | 0.00 | 0.04 | 0.05 | 87 | 1013.4 |
| 20260904153551 | 81 | 178 | 6.0 | 13.0 | 0.00 | 0.04 | 0.05 | 88 | 1013.2 |
| 20260904152540 | 80 | 169 | 5.0 | 10.0 | 0.00 | 0.04 | 0.05 | 93 | 1013.1 |
| 20260904151531 | 79 | 138 | 4.0 | 10.0 | 0.00 | 0.04 | 0.05 | 94 | 1013.3 |
| 20260904150523 | 79 | 151 | 4.0 | 9.0 | 0.00 | 0.04 | 0.05 | 95 | 1013.4 |
| 20260904145458 | 78 | 165 | 3.0 | 7.0 | 0.00 | 0.04 | 0.05 | 96 | 1013.4 |
| 20260904144433 | 78 | 137 | 2.0 | 7.0 | 0.00 | 0.04 | 0.05 | 96 | 1013.5 |
| 20260904142310 | 78 | 174 | 3.0 | 8.0 | 0.00 | 0.04 | 0.05 | 96 | 1013.2 |
| 20260904141305 | 77 | 192 | 4.0 | 8.0 | 0.00 | 0.04 | 0.05 | 96 | 1013.2 |
| 20260904135047 | 77 | 159 | 3.0 | 8.0 | 0.00 | 0.04 | 0.04 | 95 | 1013.0 |
| 20260904134051 | 77 | 153 | 2.0 | 8.0 | 0.05 | 0.04 | 0.04 | 95 | 1013.1 |
| 20260904133051 | 77 | 138 | 3.0 | 6.0 | 0.06 | 0.03 | 0.03 | 94 | 1013.0 |
| 20260904131010 | 78 | 121 | 1.0 | 6.0 | 0.00 | 0.01 | 0.01 | 93 | 1013.3 |
| 20260904125945 | 78 | 155 | 2.0 | 7.0 | 0.00 | 0.00 | 0.00 | 93 | 1013.2 |
| 20260904124919 | 78 | 90 | 2.0 | 7.0 | 0.00 | 0.00 | 0.00 | 92 | 1012.9 |
| 20260904123934 | 78 | 123 | 0.0 | 4.0 | 0.00 | 0.00 | 0.00 | 92 | 1012.9 |
| 20260904122935 | 78 | 119 | 0.0 | 0.0 | 0.00 | 0.00 | 0.00 | 92 | 1013.1 |
| 20260904121927 | 78 | 44 | 0.0 | 0.0 | 0.00 | 0.00 | 0.00 | 92 | 1013.2 |
| 20260904120912 | 78 | 44 | 0.0 | 0.0 | 0.00 | 0.00 | 0.00 | 91 | 1012.9 |
| 20260904115854 | 78 | 44 | 0.0 | 2.0 | 0.00 | 0.00 | 0.00 | 91 | 1012.7 |
| 20260904114834 | 78 | 115 | 1.0 | 4.0 | 0.00 | 0.00 | 0.00 | 91 | 1012.4 |
| 20260904113837 | 78 | 63 | 2.0 | 5.0 | 0.00 | 0.00 | 0.00 | 91 | 1012.0 |
| 20260904112838 | 78 | 84 | 2.0 | 5.0 | 0.00 | 0.00 | 0.00 | 91 | 1011.8 |
| 20260904111838 | 78 | 119 | 3.0 | 8.0 | 0.00 | 0.00 | 0.00 | 91 | 1011.6 |
| 20260904110825 | 78 | 88 | 3.0 | 8.0 | 0.00 | 0.00 | 0.00 | 90 | 1011.4 |
| 20260904105755 | 78 | 127 | 4.0 | 8.0 | 0.00 | 0.00 | 0.00 | 90 | 1011.4 |
| 20260904104757 | 78 | 140 | 3.0 | 7.0 | 0.00 | 0.00 | 0.00 | 90 | 1011.4 |
| 20260904103757 | 78 | 124 | 3.0 | 7.0 | 0.00 | 0.00 | 0.00 | 90 | 1011.3 |
| 20260904101649 | 79 | 125 | 2.0 | 7.0 | 0.00 | 0.00 | 0.00 | 89 | 1011.2 |
| 20260904100617 | 79 | 138 | 2.0 | 6.0 | 0.00 | 0.00 | 0.00 | 88 | 1011.3 |
| 20260904095614 | 79 | 152 | 2.0 | 7.0 | 0.00 | 0.00 | 0.00 | 88 | 1011.2 |
| 20260904094620 | 79 | 125 | 2.0 | 8.0 | 0.00 | 0.00 | 0.00 | 87 | 1011.2 |
| 20260904093621 | 79 | 120 | 3.0 | 9.0 | 0.00 | 0.00 | 0.00 | 87 | 1011.2 |
| 20260904092552 | 79 | 144 | 3.0 | 9.0 | 0.00 | 0.00 | 0.00 | 87 | 1011.2 |
| 20260904091523 | 79 | 144 | 3.0 | 7.0 | 0.00 | 0.00 | 0.00 | 87 | 1011.1 |
| 20260904090458 | 79 | 111 | 4.0 | 11.0 | 0.00 | 0.00 | 0.00 | 87 | 1011.2 |
| 20260904085511 | 79 | 121 | 4.0 | 11.0 | 0.00 | 0.00 | 0.00 | 86 | 1011.2 |
| 20260904084449 | 79 | 174 | 5.0 | 12.0 | 0.00 | 0.00 | 0.00 | 86 | 1011.3 |
| 20260904083446 | 80 | 155 | 3.0 | 12.0 | 0.00 | 0.00 | 0.00 | 86 | 1011.2 |
| 20260904082506 | 80 | 175 | 5.0 | 13.0 | 0.00 | 0.00 | 0.00 | 86 | 1011.4 |
| 20260904081449 | 80 | 116 | 5.0 | 13.0 | 0.00 | 0.00 | 0.00 | 86 | 1011.3 |
| 20260904080425 | 80 | 149 | 5.0 | 11.0 | 0.00 | 0.00 | 0.00 | 86 | 1011.3 |
| 20260904074244 | 80 | 107 | 4.0 | 9.0 | 0.00 | 0.00 | 0.00 | 86 | 1011.3 |
| 20260904073248 | 80 | 119 | 4.0 | 9.0 | 0.00 | 0.00 | 0.00 | 86 | 1011.4 |
| 20260904072233 | 80 | 105 | 3.0 | 10.0 | 0.00 | 0.00 | 0.00 | 85 | 1011.5 |
| 20260904071225 | 80 | 91 | 5.0 | 10.0 | 0.00 | 0.00 | 0.00 | 85 | 1011.6 |
| 20260904070210 | 80 | 126 | 4.0 | 17.0 | 0.00 | 0.00 | 0.00 | 85 | 1011.6 |
| 20260904065212 | 80 | 98 | 5.0 | 17.0 | 0.00 | 0.00 | 0.00 | 85 | 1011.6 |
| 20260904064140 | 80 | 128 | 5.0 | 12.0 | 0.00 | 0.00 | 0.00 | 84 | 1011.6 |
| 20260904063132 | 80 | 117 | 6.0 | 12.0 | 0.00 | 0.00 | 0.00 | 84 | 1011.8 |